Eden Prairie, MN

6:42 PM CST on February 14, 2016 (GMT -0600)
Flying Cloud

Weather History for KFCM - October, 2014

Change the Weather History Date:

Thursday, October 2, 2014

  Actual Average Record
Temperature  
Mean Temperature 54 °F -  
Max Temperature 61 °F 63 °F 86 °F (2001)
Min Temperature 48 °F 42 °F 25 °F (2003)
Degree Days  
Heating Degree Days 10    
Growing Degree Days 4 (Base 50)    
Moisture  
Dew Point 54 °F    
Average Humidity 95    
Maximum Humidity 100    
Minimum Humidity 83    
Precipitation  
Precipitation 0.68 in - - ()
Sea Level Pressure  
Sea Level Pressure 29.79 in    
Wind  
Wind Speed 4 mph (NNW)    
Max Wind Speed 16 mph    
Max Gust Speed 22 mph    
Visibility 4 miles    
Events Fog , Rain    
Averages and records for this station are not official NWS values.
T = Trace of Precipitation, MM = Missing Value Source: NWS Daily Summary

Daily Weather History Graph

Daily Weather History Graph

Search for Another Location

Airport or City:

Trip Planner

Search our weather history database for the weather conditions in past years. The results will help you decide how hot, cold, wet, or windy it might be!

Date:

Astronomy

Oct. 02, 2014 Rise Set
Actual Time 7:13 AM CDT 6:52 PM CDT
Civil Twilight 6:43 AM CDT 7:21 PM CDT
Nautical Twilight 6:09 AM CDT 7:55 PM CDT
Astronomical Twilight 5:35 AM CDT 8:29 PM CDT
Moon 3:12 PM CDT (10/2) 12:16 AM CDT (10/2)
Length of Visible Light 12h 37m
Length of Day
11h 39m
First Quarter, 60% of the Moon is Illuminated
Oct 2
First Quarter
Oct 8
Full
Oct 15
Last Quarter
Oct 23
New
Oct 30
First Quarter

Hourly Weather History & Observations

Time (CDT) Temp. Dew Point Humidity Pressure Visibility Wind Dir Wind Speed Gust Speed Precip Events Conditions
12:11 AM 57.0 °F 55.0 °F 93% 29.81 in 1.0 mi Calm Calm - N/A   Mist
12:20 AM 57.0 °F 55.0 °F 93% 29.81 in 0.2 mi Calm Calm - N/A Fog Fog
12:39 AM 55.0 °F 55.0 °F 100% 29.80 in 0.2 mi Calm Calm - N/A Fog Fog
12:53 AM 55.0 °F 54.0 °F 96% 29.81 in 0.2 mi Calm Calm - N/A Fog Fog
1:53 AM 54.0 °F 54.0 °F 100% 29.82 in 0.2 mi North 3.5 mph - N/A Fog Fog
2:53 AM 55.9 °F 55.0 °F 97% 29.83 in 0.2 mi NNE 3.5 mph - N/A Fog Fog
3:53 AM 57.0 °F 55.9 °F 96% 29.83 in 0.5 mi NE 4.6 mph - N/A Fog Fog
4:29 AM 57.0 °F 55.9 °F 96% 29.82 in 1.5 mi NNE 3.5 mph - N/A   Overcast
4:53 AM 57.0 °F 57.0 °F 100% 29.82 in 1.5 mi NNE 3.5 mph - N/A   Overcast
5:03 AM 57.0 °F 55.9 °F 96% 29.82 in 3.0 mi NNE 5.8 mph - N/A   Overcast
5:36 AM 57.0 °F 57.0 °F 100% 29.82 in 2.5 mi NE 4.6 mph - N/A   Overcast
5:53 AM 57.0 °F 55.9 °F 96% 29.83 in 3.0 mi North 4.6 mph - N/A   Overcast
6:17 AM 57.0 °F 55.9 °F 96% 29.83 in 4.0 mi North 3.5 mph - N/A   Overcast
6:53 AM 57.9 °F 55.9 °F 93% 29.83 in 6.0 mi NE 6.9 mph - N/A   Overcast
7:08 AM 51.1 °F 48.0 °F 89% 29.82 in 7.0 mi SE 11.5 mph - 0.00 in Rain Light Rain
7:24 AM 57.9 °F 55.0 °F 90% 29.83 in 6.0 mi NNE 5.8 mph - N/A   Overcast
7:53 AM 57.9 °F 55.0 °F 90% 29.84 in 5.0 mi Calm Calm - N/A   Overcast
8:53 AM 59.0 °F 55.9 °F 90% 29.84 in 5.0 mi Calm Calm - N/A   Overcast
9:53 AM 60.1 °F 55.9 °F 86% 29.83 in 5.0 mi NE 3.5 mph - N/A   Overcast
10:12 AM 60.1 °F 55.9 °F 86% 29.83 in 5.0 mi Calm Calm - N/A   Overcast
10:23 AM 60.1 °F 55.9 °F 86% 29.83 in 6.0 mi Calm Calm - N/A   Overcast
10:53 AM 61.0 °F 55.9 °F 83% 29.83 in 6.0 mi Calm Calm - N/A   Haze
11:53 AM 57.9 °F 55.9 °F 93% 29.82 in 4.0 mi NNW 6.9 mph - 0.02 in Rain Light Rain
12:06 PM 57.9 °F 55.9 °F 93% 29.82 in 1.8 mi WNW 9.2 mph - 0.02 in Rain Rain
12:29 PM 57.0 °F 55.9 °F 96% 29.81 in 1.2 mi NW 10.4 mph - 0.14 in Rain Rain
12:53 PM 57.0 °F 55.9 °F 96% 29.81 in 2.0 mi NNW 9.2 mph - 0.20 in Rain Light Rain
1:11 PM 57.0 °F 55.9 °F 96% 29.80 in 2.5 mi NW 6.9 mph - 0.03 in Rain Light Rain
1:23 PM 57.0 °F 55.9 °F 96% 29.80 in 2.5 mi NW 9.2 mph - 0.04 in Rain Rain
1:31 PM 57.0 °F 55.0 °F 93% 29.79 in 1.8 mi NNW 8.1 mph - 0.07 in Rain Rain
1:37 PM 57.0 °F 55.9 °F 96% 29.79 in 2.0 mi NW 8.1 mph - 0.09 in Rain Rain
1:53 PM 57.0 °F 55.9 °F 96% 29.81 in 2.0 mi West 5.8 mph - 0.13 in Rain Rain
2:00 PM 57.0 °F 55.9 °F 96% 29.80 in 1.2 mi WNW 4.6 mph - 0.02 in Rain Rain
2:27 PM 57.0 °F 55.0 °F 93% 29.78 in 2.0 mi NW 10.4 mph - 0.11 in Rain Rain
2:50 PM 57.2 °F 55.4 °F 94% 29.77 in 4.0 mi NNW 8.1 mph - 0.13 in Rain Light Rain
2:53 PM 57.0 °F 55.0 °F 93% 29.78 in 4.0 mi North 8.1 mph - 0.13 in Rain Light Rain
3:06 PM 57.0 °F 55.9 °F 96% 29.77 in 6.0 mi NNW 6.9 mph - 0.00 in Rain Light Rain
3:25 PM 57.0 °F 55.9 °F 96% 29.77 in 6.0 mi NNW 10.4 mph - 0.01 in Rain Light Rain
3:41 PM 55.9 °F 53.1 °F 90% 29.77 in 9.0 mi NNW 16.1 mph 21.9 mph 0.01 in   Overcast
3:53 PM 55.9 °F 53.1 °F 90% 29.77 in 10.0 mi NW 11.5 mph - 0.01 in   Overcast
4:10 PM 55.0 °F 53.1 °F 93% 29.77 in 10.0 mi NNW 9.2 mph - 0.00 in Rain Light Rain
4:46 PM 54.0 °F 52.0 °F 93% 29.77 in 2.5 mi NNW 12.7 mph - 0.02 in Rain Light Rain
4:53 PM 54.0 °F 52.0 °F 93% 29.77 in 3.0 mi NNW 12.7 mph - 0.03 in Rain Light Rain
5:01 PM 54.0 °F 52.0 °F 93% 29.76 in 2.5 mi NNW 9.2 mph - 0.01 in Rain Light Rain
5:11 PM 53.1 °F 52.0 °F 96% 29.76 in 4.0 mi NNW 9.2 mph - 0.02 in Rain Light Rain
5:53 PM 54.0 °F 53.1 °F 97% 29.78 in 3.0 mi Calm Calm - 0.07 in Rain Light Rain
6:53 PM 53.1 °F 52.0 °F 96% 29.76 in 6.0 mi North 4.6 mph - 0.08 in Rain Light Rain
7:26 PM 53.1 °F 52.0 °F 96% 29.75 in 10.0 mi North 4.6 mph - 0.01 in Rain Light Rain
7:53 PM 53.1 °F 52.0 °F 96% 29.77 in 9.0 mi West 3.5 mph - 0.01 in   Partly Cloudy
8:03 PM 52.0 °F 52.0 °F 100% 29.77 in 8.0 mi West 3.5 mph - N/A   Partly Cloudy
8:53 PM 51.1 °F 51.1 °F 100% 29.77 in 9.0 mi WNW 5.8 mph - N/A   Clear
9:53 PM 50.0 °F 50.0 °F 100% 29.77 in 6.0 mi West 4.6 mph - N/A   Clear
10:53 PM 48.9 °F 48.9 °F 100% 29.75 in 2.5 mi West 4.6 mph - N/A   Clear
10:58 PM 48.9 °F 48.0 °F 97% 29.75 in 1.0 mi West 5.8 mph - N/A   Mist
11:06 PM 50.0 °F 48.9 °F 96% 29.75 in 2.0 mi West 5.8 mph - N/A   Clear
11:14 PM 48.9 °F 48.9 °F 100% 29.74 in 5.0 mi West 4.6 mph - N/A   Clear
11:27 PM 48.9 °F 48.9 °F 100% 29.75 in 1.5 mi West 4.6 mph - N/A   Partly Cloudy
11:53 PM 48.9 °F 48.0 °F 97% 29.74 in 2.0 mi SW 4.6 mph - N/A   Partly Cloudy
11:55 PM 48.9 °F 48.0 °F 97% 29.73 in 1.0 mi SW 3.5 mph - N/A   Mist
11:59 PM 48.0 °F 48.0 °F 100% 29.73 in 0.2 mi Calm Calm - N/A Fog Fog